TITAN 3C TRANSTAGE DEB, 43283

Orbit data source: Space-Track

TITAN 3C TRANSTAGE DEB, 43283 is space debris in GEO originally from a launch on Sun, 09 Feb 1969 UTC launched from the Air Force Eastern Test Range (AFETR). Debris objects in space refer to the collection of defunct objects orbiting the Earth. Examples of debris include non-operational satellites, rocket bodies, and fragments generated from explosions, collisions, or faulty payload assembly.

Not visible in the next 10 days
Identifier
43283, 1969-013D
Orbit
GEO
Country
Flag of USUS
Related business
Manufacturer
Martin Marietta
Mission
Spacecraft
Bus & Motor
Unknown
Mass
Unknown
Launch date (UTC)
1969-02-09 (57 years ago)
Launch vehicle
Unknown
Launch site
Air Force Eastern Test Range (AFETR)
Object type
Payload
Rocket body
Debris
Shape & HBR
Unknown shape, 1.1 m
Radar Cross Section
RCS unknown

Expand to show TLE details & history
Last TLE update: 1 day ago

TLE from 1 day ago
0 TITAN 3C TRANSTAGE DEB
1 43283U 69013D   26034.32923244 -.00000170  00000-0  00000+0 0  9991
2 43283   1.0751  94.3772 0339375 138.6603 223.9128  0.93097032 26845
Epoch: 2026-02-03T07:54Z
TLE epoch observation values (Epoch: 2026-02-03T07:54:05.682Z)
Latitude
Longitude
-157.64702°
Altitude
39,026.489 km
Speed
2.926 km/s
True Right ascension
06h 17m 33s
True Declination
0° 00' 00"
Sunlit
Object was in daylight at epoch
Visualization orbit readout
Latitude
Unknown
Longitude
Unknown
Altitude
Unknown
Speed
Unknown
Apparent Right ascension
Unknown
Apparent Declination
Unknown
Sunlit
N/A
Visualization observer readout
Local Sidereal Time
17:32:37
Azimuth
Unknown
Elevation
Unknown
Doppler factor
Unknown
Orbital elements
Apogee altitude
39,430.664 km
Perigee altitude
36,423.449 km
Semi-major axis
44,305.194 km
Eccentricity
0.03394
Inclination
1.0751°
RAAN
94.3772°
Arg. of periapsis
138.6603°
True anomaly
221.29655°
Mean anomaly
223.9128°
Eccentric anomaly
222.59671°
Mean motion
0.23273 °/min
Orbital period
1,546.83 mins
BSTAR
0
Loading maneuver chart data...
Computing Atmospheric mass density...

Documentation

Showing up to 5 results
|